This is the latest recevied weather packets stored in our database for station/object W4CKA. If no packets are shown the sender has not sent any weather packets the latest 10 day(s).
| Time | Temp. | Humidity | Pressure | Rain* | Wind** | Luminosity | Snow |
|---|---|---|---|---|---|---|---|
| 1778005845 | 22.78° C | 51% | 1056 hPa | 0 mm | - | 349 W/m² | - |
| 1778005243 | 23.89° C | 49% | 1056.2 hPa | 0 mm | - | 356 W/m² | - |
| 1778004644 | 22.78° C | 50% | 1056.1 hPa | 0 mm | - | 515 W/m² | - |
| 1778004043 | 22.78° C | 48% | 1056.3 hPa | 0 mm | - | 401 W/m² | - |
| 1778003440 | 22.78° C | 50% | 1056.3 hPa | 0 mm | - | 460 W/m² | - |
| 1778002839 | 23.33° C | 50% | 1056.5 hPa | 0 mm | - | 488 W/m² | - |
| 1778002239 | 23.89° C | 50% | 1056.7 hPa | 0 mm | - | 548 W/m² | - |
| 1778001638 | 22.78° C | 55% | 1057 hPa | 0 mm | - | 577 W/m² | - |
| 1778001036 | 22.78° C | 54% | 1057 hPa | 0 mm | - | 376 W/m² | - |
| 1778000435 | 22.22° C | 51% | 1057.1 hPa | 0 mm | - | 560 W/m² | - |
| 1777999832 | 23.33° C | 51% | 1057 hPa | 0 mm | - | 300 W/m² | - |
| 1777999232 | 22.78° C | 56% | 1057.1 hPa | 0 mm | - | 566 W/m² | - |
| 1777998627 | 22.78° C | 55% | 1057.1 hPa | 0 mm | - | 657 W/m² | - |
| 1777998023 | 22.78° C | 52% | 1057.1 hPa | 0 mm | - | 645 W/m² | - |
| 1777997423 | 22.22° C | 51% | 1057.2 hPa | 0 mm | - | 378 W/m² | - |
| 1777996818 | 21.67° C | 54% | 1057.2 hPa | 0 mm | - | 445 W/m² | - |
| 1777996216 | 21.67° C | 58% | 1057.5 hPa | 0 mm | - | 389 W/m² | - |
| 1777995615 | 21.67° C | 56% | 1057.6 hPa | 0 mm | - | 391 W/m² | - |
| 1777995015 | 21.67° C | 59% | 1057.6 hPa | 0 mm | - | 432 W/m² | - |
| 1777994413 | 21.11° C | 67% | 1057.5 hPa | 0 mm | - | 653 W/m² | - |
| 1777993811 | 21.11° C | 60% | 1057.7 hPa | 0 mm | - | 524 W/m² | - |
| 1777993210 | 20° C | 63% | 1057.7 hPa | 0 mm | - | 432 W/m² | - |
| 1777992604 | 20° C | 61% | 1057.7 hPa | 0 mm | - | 323 W/m² | - |
| 1777992005 | 20° C | 66% | 1057.6 hPa | 0 mm | - | 461 W/m² | - |
| 1777991405 | 19.44° C | 67% | 1057.6 hPa | 0 mm | - | 478 W/m² | - |
* Rain latest hour (hover to see other rain measurements)
** Current wind speed in m/s (hover to see current wind gust speed)